Retour au catalogue

OPS 4682 DEB

ActifPO
NORAD 19964·DEBRIS·🇺🇸 United States

Lancé Apr 3, 1965 depuis Vandenberg Space Force Base

Loading…

Prochains Passages (prochaines 24 heures)

TLE

FraisSource: Space-Track

Époque: Sep 12, 2026, 08:05 UTC

1 19964U 65027BA  26255.33708436  .00000677  00000-0  23180-2 0  9999
2 19964  90.2721  19.2170 0016049 311.2291  75.7420 12.97099833563360

Suivez OPS 4682 DEB en temps réel avec AllMySat

Download on the App Store